contact:dominique.lefevre@mio.osupytheas.fr, maurice.libes@osupytheas.fr, didier.mallarino@osupytheas.fr
Project:EMSO http://www.emso-fr.org/EMSO-France
Depth: 2436.0 m
Title:EMSO Ligure Ouest : Data MII capteur MICROCAT
DateTime_Computer,Latitude,Longitude,Temperature,Conductivity,Pressure,DateTime_Instrument
DateTime_Computer,Latitude,Longitude,degC,S m-1,dbar,DateTime_Instrument
2020-06-26T00:02:46Z,42.805,6.029,13.2975,4.59991,2470.227,2020-6-26T02:03:31Z
2020-06-26T00:05:49Z,42.805,6.029,13.2986,4.59988,2470.264,2020-6-26T02:06:34Z
2020-06-26T00:08:52Z,42.805,6.029,13.2978,4.59986,2470.236,2020-6-26T02:09:37Z
2020-06-26T00:11:55Z,42.805,6.029,13.2983,4.59988,2470.227,2020-6-26T02:12:40Z
2020-06-26T00:14:58Z,42.805,6.029,13.2981,4.60007,2470.264,2020-6-26T02:15:44Z
2020-06-26T00:18:02Z,42.805,6.029,13.2974,4.60003,2470.227,2020-6-26T02:18:47Z
2020-06-26T00:21:05Z,42.805,6.029,13.2977,4.59978,2470.227,2020-6-26T02:21:50Z
2020-06-26T00:24:08Z,42.805,6.029,13.2977,4.59981,2470.227,2020-6-26T02:24:53Z
2020-06-26T00:27:11Z,42.805,6.029,13.2979,4.59984,2470.217,2020-6-26T02:27:57Z
2020-06-26T00:30:15Z,42.805,6.029,13.2979,4.60012,2470.18,2020-6-26T02:31:00Z
2020-06-26T00:33:18Z,42.805,6.029,13.2979,4.59988,2470.203,2020-6-26T02:34:03Z
2020-06-26T00:36:21Z,42.805,6.029,13.2980,4.59991,2470.18,2020-6-26T02:37:06Z
2020-06-26T00:39:25Z,42.805,6.029,13.2982,4.59992,2470.217,2020-6-26T02:40:10Z
2020-06-26T00:42:28Z,42.805,6.029,13.2975,4.59993,2470.18,2020-6-26T02:43:13Z
2020-06-26T00:45:31Z,42.805,6.029,13.2982,4.59994,2470.18,2020-6-26T02:46:16Z
2020-06-26T00:48:34Z,42.805,6.029,13.2980,4.59978,2470.203,2020-6-26T02:49:20Z
2020-06-26T00:51:38Z,42.805,6.029,13.2983,4.59989,2470.156,2020-6-26T02:52:23Z
2020-06-26T00:54:41Z,42.805,6.029,13.2978,4.59978,2470.203,2020-6-26T02:55:26Z
2020-06-26T00:57:44Z,42.805,6.029,13.2979,4.59987,2470.156,2020-6-26T02:58:29Z
2020-06-26T01:00:47Z,42.805,6.029,13.2983,4.59981,2470.217,2020-6-26T03:01:32Z
2020-06-26T01:03:50Z,42.805,6.029,13.2979,4.59985,2470.18,2020-6-26T03:04:36Z
2020-06-26T01:06:54Z,42.805,6.029,13.2984,4.59990,2470.171,2020-6-26T03:07:39Z
2020-06-26T01:09:57Z,42.805,6.029,13.2978,4.59996,2470.18,2020-6-26T03:10:42Z
2020-06-26T01:13:00Z,42.805,6.029,13.2978,4.59991,2470.194,2020-6-26T03:13:46Z
2020-06-26T01:16:04Z,42.805,6.029,13.2978,4.59990,2470.171,2020-6-26T03:16:49Z
2020-06-26T01:19:07Z,42.805,6.029,13.2976,4.59986,2470.203,2020-6-26T03:19:52Z
2020-06-26T01:22:10Z,42.805,6.029,13.2977,4.59987,2470.156,2020-6-26T03:22:55Z
2020-06-26T01:25:13Z,42.805,6.029,13.2977,4.59992,2470.203,2020-6-26T03:25:59Z
2020-06-26T01:28:17Z,42.805,6.029,13.2978,4.59990,2470.156,2020-6-26T03:29:02Z
2020-06-26T01:31:20Z,42.805,6.029,13.2977,4.59992,2470.18,2020-6-26T03:32:05Z
2020-06-26T01:34:23Z,42.805,6.029,13.2975,4.59987,2470.156,2020-6-26T03:35:08Z
2020-06-26T01:37:27Z,42.805,6.029,13.2982,4.59984,2470.18,2020-6-26T03:38:12Z
2020-06-26T01:40:30Z,42.805,6.029,13.2982,4.59982,2470.18,2020-6-26T03:41:15Z
2020-06-26T01:43:33Z,42.805,6.029,13.2976,4.59994,2470.133,2020-6-26T03:44:18Z
2020-06-26T01:46:36Z,42.805,6.029,13.2977,4.59983,2470.203,2020-6-26T03:47:22Z
2020-06-26T01:49:40Z,42.805,6.029,13.2977,4.59991,2470.133,2020-6-26T03:50:25Z
2020-06-26T01:52:43Z,42.805,6.029,13.2974,4.59989,2470.18,2020-6-26T03:53:28Z
2020-06-26T01:55:46Z,42.805,6.029,13.2980,4.59982,2470.18,2020-6-26T03:56:31Z
2020-06-26T01:58:49Z,42.805,6.029,13.2974,4.59981,2470.203,2020-6-26T03:59:35Z
2020-06-26T02:01:53Z,42.805,6.029,13.2976,4.59979,2470.194,2020-6-26T04:02:38Z
2020-06-26T02:04:56Z,42.805,6.029,13.2978,4.59979,2470.156,2020-6-26T04:05:41Z
2020-06-26T02:07:59Z,42.805,6.029,13.2975,4.59991,2470.124,2020-6-26T04:08:44Z
2020-06-26T02:11:02Z,42.805,6.029,13.2976,4.59984,2470.156,2020-6-26T04:11:48Z
2020-06-26T02:14:06Z,42.805,6.029,13.2975,4.59983,2470.156,2020-6-26T04:14:51Z
2020-06-26T02:17:09Z,42.805,6.029,13.2976,4.59994,2470.156,2020-6-26T04:17:54Z
2020-06-26T02:20:12Z,42.805,6.029,13.2974,4.59995,2470.18,2020-6-26T04:20:57Z
2020-06-26T02:23:16Z,42.805,6.029,13.2974,4.59979,2470.156,2020-6-26T04:24:01Z
2020-06-26T02:26:19Z,42.805,6.029,13.2979,4.59992,2470.156,2020-6-26T04:27:04Z
2020-06-26T02:29:22Z,42.805,6.029,13.2978,4.59993,2470.171,2020-6-26T04:30:07Z
2020-06-26T02:32:25Z,42.805,6.029,13.2976,4.59986,2470.11,2020-6-26T04:33:11Z
2020-06-26T02:35:29Z,42.805,6.029,13.2974,4.59983,2470.171,2020-6-26T04:36:14Z
2020-06-26T02:38:32Z,42.805,6.029,13.2974,4.59986,2470.171,2020-6-26T04:39:17Z
2020-06-26T02:41:35Z,42.805,6.029,13.2977,4.59989,2470.147,2020-6-26T04:42:20Z
2020-06-26T02:44:38Z,42.805,6.029,13.2976,4.59986,2470.133,2020-6-26T04:45:24Z
2020-06-26T02:47:42Z,42.805,6.029,13.2974,4.59986,2470.124,2020-6-26T04:48:27Z
2020-06-26T02:50:45Z,42.805,6.029,13.2974,4.59978,2470.133,2020-6-26T04:51:30Z
2020-06-26T02:53:48Z,42.805,6.029,13.2974,4.59987,2470.11,2020-6-26T04:54:33Z
2020-06-26T02:56:51Z,42.805,6.029,13.2971,4.59982,2470.1,2020-6-26T04:57:37Z
2020-06-26T02:59:54Z,42.805,6.029,13.2973,4.59986,2470.133,2020-6-26T05:00:40Z
2020-06-26T03:02:58Z,42.805,6.029,13.2974,4.59983,2470.11,2020-6-26T05:03:43Z
2020-06-26T03:06:01Z,42.805,6.029,13.2978,4.59981,2470.133,2020-6-26T05:06:46Z
2020-06-26T03:09:04Z,42.805,6.029,13.2974,4.59979,2470.133,2020-6-26T05:09:49Z
2020-06-26T03:12:07Z,42.805,6.029,13.2976,4.59982,2470.11,2020-6-26T05:12:53Z
2020-06-26T03:15:11Z,42.805,6.029,13.2977,4.59983,2470.1,2020-6-26T05:15:56Z
2020-06-26T03:18:14Z,42.805,6.029,13.2976,4.59976,2470.124,2020-6-26T05:18:59Z
2020-06-26T03:21:17Z,42.805,6.029,13.2974,4.59973,2470.133,2020-6-26T05:22:02Z
2020-06-26T03:24:20Z,42.805,6.029,13.2973,4.59983,2470.147,2020-6-26T05:25:06Z
2020-06-26T03:27:23Z,42.805,6.029,13.2969,4.59980,2470.1,2020-6-26T05:28:09Z
2020-06-26T03:30:27Z,42.805,6.029,13.2979,4.59985,2470.133,2020-6-26T05:31:12Z
2020-06-26T03:33:30Z,42.805,6.029,13.2975,4.59985,2470.124,2020-6-26T05:34:15Z
2020-06-26T03:36:33Z,42.805,6.029,13.2977,4.59981,2470.1,2020-6-26T05:37:19Z
2020-06-26T03:39:37Z,42.805,6.029,13.2973,4.59990,2470.124,2020-6-26T05:40:22Z
2020-06-26T03:42:40Z,42.805,6.029,13.2979,4.59979,2470.087,2020-6-26T05:43:25Z
2020-06-26T03:45:43Z,42.805,6.029,13.2976,4.59978,2470.063,2020-6-26T05:46:28Z
2020-06-26T03:48:46Z,42.805,6.029,13.2976,4.59977,2470.087,2020-6-26T05:49:32Z
2020-06-26T03:51:50Z,42.805,6.029,13.2974,4.59983,2470.1,2020-6-26T05:52:35Z
2020-06-26T03:54:53Z,42.805,6.029,13.2979,4.59984,2470.087,2020-6-26T05:55:38Z
2020-06-26T03:57:56Z,42.805,6.029,13.2983,4.59981,2470.063,2020-6-26T05:58:41Z
2020-06-26T04:00:59Z,42.805,6.029,13.2978,4.59984,2470.04,2020-6-26T06:01:45Z
2020-06-26T04:04:03Z,42.805,6.029,13.2970,4.59982,2470.063,2020-6-26T06:04:48Z
2020-06-26T04:07:06Z,42.805,6.029,13.2975,4.59988,2470.087,2020-6-26T06:07:51Z
2020-06-26T04:10:09Z,42.805,6.029,13.2976,4.59991,2470.04,2020-6-26T06:10:54Z
2020-06-26T04:13:12Z,42.805,6.029,13.2975,4.59986,2470.087,2020-6-26T06:13:58Z
2020-06-26T04:16:16Z,42.805,6.029,13.2973,4.59981,2470.087,2020-6-26T06:17:01Z
2020-06-26T04:19:19Z,42.805,6.029,13.2974,4.59986,2470.087,2020-6-26T06:20:04Z
2020-06-26T04:22:22Z,42.805,6.029,13.2969,4.59983,2470.04,2020-6-26T06:23:08Z
2020-06-26T04:25:26Z,42.805,6.029,13.2973,4.59983,2470.087,2020-6-26T06:26:11Z
2020-06-26T04:28:29Z,42.805,6.029,13.2976,4.59981,2470.087,2020-6-26T06:29:14Z
2020-06-26T04:31:32Z,42.805,6.029,13.2974,4.59984,2470.063,2020-6-26T06:32:17Z
2020-06-26T04:34:35Z,42.805,6.029,13.2980,4.59991,2470.063,2020-6-26T06:35:20Z
2020-06-26T04:37:38Z,42.805,6.029,13.2976,4.60001,2470.04,2020-6-26T06:38:24Z
2020-06-26T04:40:42Z,42.805,6.029,13.2979,4.59978,2470.063,2020-6-26T06:41:27Z
2020-06-26T04:43:45Z,42.805,6.029,13.2972,4.59990,2470.063,2020-6-26T06:44:30Z
2020-06-26T04:46:48Z,42.805,6.029,13.2977,4.59988,2470.077,2020-6-26T06:47:33Z
2020-06-26T04:49:51Z,42.805,6.029,13.2979,4.59993,2470.063,2020-6-26T06:50:37Z
2020-06-26T04:52:55Z,42.805,6.029,13.2980,4.59981,2470.077,2020-6-26T06:53:40Z
2020-06-26T04:55:58Z,42.805,6.029,13.2979,4.59991,2470.077,2020-6-26T06:56:43Z
2020-06-26T04:59:01Z,42.805,6.029,13.2974,4.59988,2470.063,2020-6-26T06:59:46Z
2020-06-26T05:02:04Z,42.805,6.029,13.2975,4.59986,2470.077,2020-6-26T07:02:50Z
2020-06-26T05:05:07Z,42.805,6.029,13.2975,4.59976,2470.04,2020-6-26T07:05:53Z
2020-06-26T05:08:11Z,42.805,6.029,13.2974,4.59983,2470.063,2020-6-26T07:08:56Z
2020-06-26T05:11:14Z,42.805,6.029,13.2976,4.59981,2470.053,2020-6-26T07:11:59Z
2020-06-26T05:14:17Z,42.805,6.029,13.2971,4.59980,2470.049,2020-6-26T07:15:03Z
2020-06-26T05:17:21Z,42.805,6.029,13.2974,4.59986,2470.063,2020-6-26T07:18:06Z
2020-06-26T05:20:24Z,42.805,6.029,13.2978,4.59984,2470.063,2020-6-26T07:21:09Z
2020-06-26T05:23:27Z,42.805,6.029,13.2972,4.59994,2470.026,2020-6-26T07:24:13Z
2020-06-26T05:26:31Z,42.805,6.029,13.2974,4.59994,2470.04,2020-6-26T07:27:16Z
2020-06-26T05:29:34Z,42.805,6.029,13.2983,4.59998,2470.04,2020-6-26T07:30:19Z
2020-06-26T05:32:37Z,42.805,6.029,13.2975,4.59991,2470.077,2020-6-26T07:33:22Z
2020-06-26T05:35:40Z,42.805,6.029,13.2979,4.59981,2470.053,2020-6-26T07:36:25Z
2020-06-26T05:38:44Z,42.805,6.029,13.2977,4.59978,2470.063,2020-6-26T07:39:29Z
2020-06-26T05:41:47Z,42.805,6.029,13.2975,4.59983,2470.053,2020-6-26T07:42:32Z
2020-06-26T05:44:50Z,42.805,6.029,13.2977,4.59989,2470.04,2020-6-26T07:45:35Z
2020-06-26T05:47:53Z,42.805,6.029,13.2978,4.59989,2470.03,2020-6-26T07:48:39Z
2020-06-26T05:50:56Z,42.805,6.029,13.2971,4.59981,2470.03,2020-6-26T07:51:42Z
2020-06-26T05:54:00Z,42.805,6.029,13.2974,4.59981,2470.04,2020-6-26T07:54:45Z
2020-06-26T05:57:03Z,42.805,6.029,13.2972,4.59986,2470.063,2020-6-26T07:57:48Z
2020-06-26T06:00:06Z,42.805,6.029,13.2968,4.59986,2470.04,2020-6-26T08:00:51Z
2020-06-26T06:03:09Z,42.805,6.029,13.2976,4.59986,2470.04,2020-6-26T08:03:55Z
2020-06-26T06:06:13Z,42.805,6.029,13.2974,4.59983,2470.053,2020-6-26T08:06:58Z
2020-06-26T06:09:16Z,42.805,6.029,13.2977,4.59997,2470.053,2020-6-26T08:10:01Z
2020-06-26T06:12:19Z,42.805,6.029,13.2974,4.59987,2470.063,2020-6-26T08:13:04Z
2020-06-26T06:15:22Z,42.805,6.029,13.2974,4.59978,2470.04,2020-6-26T08:16:08Z
2020-06-26T06:18:26Z,42.805,6.029,13.2971,4.59977,2470.063,2020-6-26T08:19:11Z
2020-06-26T06:21:29Z,42.805,6.029,13.2976,4.59991,2470.1,2020-6-26T08:22:14Z
2020-06-26T06:24:32Z,42.805,6.029,13.2973,4.59983,2470.03,2020-6-26T08:25:17Z
2020-06-26T06:27:35Z,42.805,6.029,13.2971,4.59988,2470.04,2020-6-26T08:28:20Z
2020-06-26T06:30:38Z,42.805,6.029,13.2977,4.59985,2470.053,2020-6-26T08:31:24Z
2020-06-26T06:33:42Z,42.805,6.029,13.2972,4.59987,2470.077,2020-6-26T08:34:27Z
2020-06-26T06:36:45Z,42.805,6.029,13.2975,4.59988,2470.063,2020-6-26T08:37:30Z
2020-06-26T06:39:48Z,42.805,6.029,13.2974,4.59982,2470.053,2020-6-26T08:40:33Z
2020-06-26T06:42:51Z,42.805,6.029,13.2972,4.59978,2470.063,2020-6-26T08:43:37Z
2020-06-26T06:45:55Z,42.805,6.029,13.2973,4.59983,2470.063,2020-6-26T08:46:40Z
2020-06-26T06:48:58Z,42.805,6.029,13.2979,4.59991,2470.053,2020-6-26T08:49:43Z
2020-06-26T06:52:01Z,42.805,6.029,13.2975,4.59984,2470.053,2020-6-26T08:52:46Z
2020-06-26T06:55:05Z,42.805,6.029,13.2976,4.59982,2470.04,2020-6-26T08:55:50Z
2020-06-26T06:58:08Z,42.805,6.029,13.2977,4.59981,2470.063,2020-6-26T08:58:53Z
2020-06-26T07:01:11Z,42.805,6.029,13.2974,4.59985,2470.053,2020-6-26T09:01:57Z
2020-06-26T07:04:15Z,42.805,6.029,13.2974,4.59986,2470.053,2020-6-26T09:05:00Z
2020-06-26T07:07:18Z,42.805,6.029,13.2972,4.59981,2470.063,2020-6-26T09:08:03Z
2020-06-26T07:10:21Z,42.805,6.029,13.2974,4.59981,2470.017,2020-6-26T09:11:06Z
2020-06-26T07:13:24Z,42.805,6.029,13.2973,4.59987,2470.087,2020-6-26T09:14:10Z
2020-06-26T07:16:28Z,42.805,6.029,13.2979,4.59987,2470.04,2020-6-26T09:17:13Z
2020-06-26T07:19:31Z,42.805,6.029,13.2977,4.59981,2470.077,2020-6-26T09:20:17Z
2020-06-26T07:22:34Z,42.805,6.029,13.2974,4.59976,2470.077,2020-6-26T09:23:20Z
2020-06-26T07:25:38Z,42.805,6.029,13.2974,4.59986,2470.077,2020-6-26T09:26:23Z
2020-06-26T07:28:41Z,42.805,6.029,13.2970,4.59978,2470.077,2020-6-26T09:29:26Z
2020-06-26T07:31:44Z,42.805,6.029,13.2968,4.59980,2470.053,2020-6-26T09:32:29Z
2020-06-26T07:34:47Z,42.805,6.029,13.2969,4.59981,2470.063,2020-6-26T09:35:33Z
2020-06-26T07:37:51Z,42.805,6.029,13.2971,4.59991,2470.087,2020-6-26T09:38:36Z
2020-06-26T07:40:54Z,42.805,6.029,13.2973,4.59981,2470.053,2020-6-26T09:41:39Z
2020-06-26T07:43:57Z,42.805,6.029,13.2974,4.59982,2470.1,2020-6-26T09:44:43Z
2020-06-26T07:47:01Z,42.805,6.029,13.2974,4.59982,2470.063,2020-6-26T09:47:46Z
2020-06-26T07:50:04Z,42.805,6.029,13.2973,4.59988,2470.063,2020-6-26T09:50:49Z
2020-06-26T07:53:07Z,42.805,6.029,13.2979,4.59983,2470.063,2020-6-26T09:53:52Z
2020-06-26T07:56:10Z,42.805,6.029,13.2973,4.59991,2470.063,2020-6-26T09:56:56Z
2020-06-26T07:59:14Z,42.805,6.029,13.2977,4.59991,2470.063,2020-6-26T09:59:59Z
2020-06-26T08:02:17Z,42.805,6.029,13.2979,4.59978,2470.063,2020-6-26T10:03:02Z
2020-06-26T08:05:20Z,42.805,6.029,13.2971,4.59983,2470.073,2020-6-26T10:06:05Z
2020-06-26T08:08:23Z,42.805,6.029,13.2982,4.59988,2470.077,2020-6-26T10:09:09Z
2020-06-26T08:11:27Z,42.805,6.029,13.2974,4.59986,2470.1,2020-6-26T10:12:12Z
2020-06-26T08:14:30Z,42.805,6.029,13.2974,4.59983,2470.077,2020-6-26T10:15:15Z
2020-06-26T08:17:33Z,42.805,6.029,13.2974,4.59979,2470.077,2020-6-26T10:18:18Z
2020-06-26T08:20:36Z,42.805,6.029,13.2977,4.59987,2470.124,2020-6-26T10:21:21Z
2020-06-26T08:23:40Z,42.805,6.029,13.2974,4.59982,2470.11,2020-6-26T10:24:25Z
2020-06-26T08:26:43Z,42.805,6.029,13.2981,4.59979,2470.124,2020-6-26T10:27:28Z
2020-06-26T08:29:46Z,42.805,6.029,13.2973,4.59986,2470.1,2020-6-26T10:30:31Z
2020-06-26T08:32:49Z,42.805,6.029,13.2976,4.59988,2470.11,2020-6-26T10:33:35Z
2020-06-26T08:35:53Z,42.805,6.029,13.2971,4.59984,2470.087,2020-6-26T10:36:38Z
2020-06-26T08:38:56Z,42.805,6.029,13.2977,4.59991,2470.11,2020-6-26T10:39:41Z
2020-06-26T08:41:59Z,42.805,6.029,13.2976,4.59978,2470.1,2020-6-26T10:42:44Z
2020-06-26T08:45:02Z,42.805,6.029,13.2972,4.59986,2470.087,2020-6-26T10:45:48Z
2020-06-26T08:48:06Z,42.805,6.029,13.2975,4.59985,2470.087,2020-6-26T10:48:51Z
2020-06-26T08:51:09Z,42.805,6.029,13.2976,4.59983,2470.087,2020-6-26T10:51:54Z
2020-06-26T08:54:12Z,42.805,6.029,13.2976,4.59986,2470.087,2020-6-26T10:54:58Z
2020-06-26T08:57:16Z,42.805,6.029,13.2974,4.59989,2470.11,2020-6-26T10:58:01Z
2020-06-26T09:00:19Z,42.805,6.029,13.2975,4.59991,2470.1,2020-6-26T11:01:04Z
2020-06-26T09:03:22Z,42.805,6.029,13.2975,4.59988,2470.087,2020-6-26T11:04:07Z
2020-06-26T09:06:25Z,42.805,6.029,13.2977,4.59991,2470.11,2020-6-26T11:07:11Z
2020-06-26T09:09:29Z,42.805,6.029,13.2979,4.59995,2470.11,2020-6-26T11:10:14Z
2020-06-26T09:12:32Z,42.805,6.029,13.2974,4.59981,2470.096,2020-6-26T11:13:17Z
2020-06-26T09:15:35Z,42.805,6.029,13.2976,4.59986,2470.124,2020-6-26T11:16:20Z
2020-06-26T09:18:38Z,42.805,6.029,13.2979,4.59988,2470.11,2020-6-26T11:19:24Z
2020-06-26T09:21:42Z,42.805,6.029,13.2977,4.59990,2470.11,2020-6-26T11:22:27Z
2020-06-26T09:24:45Z,42.805,6.029,13.2973,4.59981,2470.087,2020-6-26T11:25:30Z
2020-06-26T09:27:48Z,42.805,6.029,13.2978,4.59985,2470.1,2020-6-26T11:28:33Z
2020-06-26T09:30:51Z,42.805,6.029,13.2974,4.59984,2470.147,2020-6-26T11:31:37Z
2020-06-26T09:33:54Z,42.805,6.029,13.2976,4.59985,2470.147,2020-6-26T11:34:40Z
2020-06-26T09:36:58Z,42.805,6.029,13.2975,4.59981,2470.11,2020-6-26T11:37:43Z
2020-06-26T09:40:01Z,42.805,6.029,13.2972,4.59981,2470.1,2020-6-26T11:40:46Z
2020-06-26T09:43:04Z,42.805,6.029,13.2977,4.59988,2470.133,2020-6-26T11:43:50Z
2020-06-26T09:46:08Z,42.805,6.029,13.2972,4.59987,2470.133,2020-6-26T11:46:53Z
2020-06-26T09:49:11Z,42.805,6.029,13.2971,4.59981,2470.11,2020-6-26T11:49:56Z
2020-06-26T09:52:14Z,42.805,6.029,13.2972,4.59982,2470.087,2020-6-26T11:52:59Z
2020-06-26T09:55:17Z,42.805,6.029,13.2980,4.59990,2470.11,2020-6-26T11:56:03Z
2020-06-26T09:58:21Z,42.805,6.029,13.2975,4.59987,2470.147,2020-6-26T11:59:06Z
2020-06-26T10:01:24Z,42.805,6.029,13.2973,4.59982,2470.133,2020-6-26T12:02:09Z
2020-06-26T10:04:27Z,42.805,6.029,13.2974,4.59995,2470.11,2020-6-26T12:05:12Z
2020-06-26T10:07:30Z,42.805,6.029,13.2973,4.59981,2470.124,2020-6-26T12:08:16Z
2020-06-26T10:10:34Z,42.805,6.029,13.2974,4.59986,2470.11,2020-6-26T12:11:19Z
2020-06-26T10:13:37Z,42.805,6.029,13.2973,4.59981,2470.133,2020-6-26T12:14:22Z
2020-06-26T10:16:40Z,42.805,6.029,13.2976,4.59986,2470.133,2020-6-26T12:17:25Z
2020-06-26T10:19:43Z,42.805,6.029,13.2976,4.59987,2470.133,2020-6-26T12:20:29Z
2020-06-26T10:22:47Z,42.805,6.029,13.2973,4.59988,2470.11,2020-6-26T12:23:32Z
2020-06-26T10:25:50Z,42.805,6.029,13.2972,4.59986,2470.147,2020-6-26T12:26:35Z
2020-06-26T10:28:53Z,42.805,6.029,13.2972,4.59986,2470.147,2020-6-26T12:29:38Z
2020-06-26T10:31:56Z,42.805,6.029,13.2974,4.59989,2470.133,2020-6-26T12:32:42Z
2020-06-26T10:35:00Z,42.805,6.029,13.2972,4.59982,2470.147,2020-6-26T12:35:45Z
2020-06-26T10:38:03Z,42.805,6.029,13.2980,4.59986,2470.147,2020-6-26T12:38:48Z
2020-06-26T10:41:06Z,42.805,6.029,13.2974,4.59986,2470.11,2020-6-26T12:41:51Z
2020-06-26T10:44:09Z,42.805,6.029,13.2974,4.59996,2470.147,2020-6-26T12:44:55Z
2020-06-26T10:47:13Z,42.805,6.029,13.2975,4.59986,2470.087,2020-6-26T12:47:58Z
2020-06-26T10:50:16Z,42.805,6.029,13.2974,4.59986,2470.087,2020-6-26T12:51:01Z
2020-06-26T10:53:19Z,42.805,6.029,13.2976,4.59982,2470.11,2020-6-26T12:54:05Z
2020-06-26T10:56:23Z,42.805,6.029,13.2970,4.59981,2470.11,2020-6-26T12:57:08Z
2020-06-26T10:59:26Z,42.805,6.029,13.2968,4.59977,2470.087,2020-6-26T13:00:11Z
2020-06-26T11:02:29Z,42.805,6.029,13.2976,4.59989,2470.147,2020-6-26T13:03:14Z
2020-06-26T11:05:32Z,42.805,6.029,13.2975,4.59980,2470.096,2020-6-26T13:06:17Z
2020-06-26T11:08:35Z,42.805,6.029,13.2978,4.59979,2470.133,2020-6-26T13:09:21Z
2020-06-26T11:11:39Z,42.805,6.029,13.2974,4.59982,2470.087,2020-6-26T13:12:24Z
2020-06-26T11:14:42Z,42.805,6.029,13.2982,4.59994,2470.11,2020-6-26T13:15:27Z
2020-06-26T11:17:45Z,42.805,6.029,13.2969,4.59979,2470.11,2020-6-26T13:18:30Z
2020-06-26T11:20:49Z,42.805,6.029,13.2973,4.59979,2470.124,2020-6-26T13:21:34Z
2020-06-26T11:23:52Z,42.805,6.029,13.2972,4.59978,2470.087,2020-6-26T13:24:37Z
2020-06-26T11:26:55Z,42.805,6.029,13.2973,4.59981,2470.087,2020-6-26T13:27:40Z
2020-06-26T11:29:58Z,42.805,6.029,13.2976,4.59981,2470.11,2020-6-26T13:30:44Z
2020-06-26T11:33:02Z,42.805,6.029,13.2974,4.59986,2470.1,2020-6-26T13:33:47Z
2020-06-26T11:36:05Z,42.805,6.029,13.2976,4.59985,2470.1,2020-6-26T13:36:50Z
2020-06-26T11:39:08Z,42.805,6.029,13.2973,4.59980,2470.1,2020-6-26T13:39:53Z
2020-06-26T11:42:11Z,42.805,6.029,13.2971,4.59981,2470.11,2020-6-26T13:42:56Z
2020-06-26T11:45:14Z,42.805,6.029,13.2973,4.59976,2470.11,2020-6-26T13:46:00Z
2020-06-26T11:48:18Z,42.805,6.029,13.2974,4.59990,2470.124,2020-6-26T13:49:03Z
2020-06-26T11:51:21Z,42.805,6.029,13.2976,4.59990,2470.11,2020-6-26T13:52:06Z
2020-06-26T11:54:24Z,42.805,6.029,13.2975,4.59990,2470.124,2020-6-26T13:55:10Z
2020-06-26T11:57:27Z,42.805,6.029,13.2976,4.59983,2470.087,2020-6-26T13:58:13Z
2020-06-26T12:00:31Z,42.805,6.029,13.2972,4.59981,2470.087,2020-6-26T14:01:16Z
2020-06-26T12:03:34Z,42.805,6.029,13.2971,4.59980,2470.133,2020-6-26T14:04:19Z
2020-06-26T12:06:37Z,42.805,6.029,13.2971,4.59985,2470.1,2020-6-26T14:07:23Z
2020-06-26T12:09:41Z,42.805,6.029,13.2971,4.59986,2470.087,2020-6-26T14:10:26Z
2020-06-26T12:12:44Z,42.805,6.029,13.2974,4.59981,2470.073,2020-6-26T14:13:29Z
2020-06-26T12:15:47Z,42.805,6.029,13.2974,4.59982,2470.1,2020-6-26T14:16:32Z
2020-06-26T12:18:50Z,42.805,6.029,13.2970,4.59983,2470.077,2020-6-26T14:19:36Z
2020-06-26T12:21:53Z,42.805,6.029,13.2976,4.59985,2470.1,2020-6-26T14:22:39Z
2020-06-26T12:24:57Z,42.805,6.029,13.2972,4.59981,2470.087,2020-6-26T14:25:42Z
2020-06-26T12:28:00Z,42.805,6.029,13.2976,4.59987,2470.1,2020-6-26T14:28:45Z
2020-06-26T12:31:03Z,42.805,6.029,13.2971,4.59981,2470.063,2020-6-26T14:31:49Z
2020-06-26T12:34:07Z,42.805,6.029,13.2970,4.59980,2470.11,2020-6-26T14:34:52Z
2020-06-26T12:37:10Z,42.805,6.029,13.2970,4.59980,2470.087,2020-6-26T14:37:55Z
2020-06-26T12:40:13Z,42.805,6.029,13.2969,4.59980,2470.063,2020-6-26T14:40:58Z
2020-06-26T12:43:16Z,42.805,6.029,13.2968,4.59976,2470.063,2020-6-26T14:44:01Z
2020-06-26T12:46:19Z,42.805,6.029,13.2978,4.59984,2470.053,2020-6-26T14:47:05Z
2020-06-26T12:49:23Z,42.805,6.029,13.2971,4.59980,2470.077,2020-6-26T14:50:08Z
2020-06-26T12:52:26Z,42.805,6.029,13.2974,4.59982,2470.087,2020-6-26T14:53:11Z
2020-06-26T12:55:29Z,42.805,6.029,13.2974,4.59984,2470.11,2020-6-26T14:56:15Z
2020-06-26T12:58:33Z,42.805,6.029,13.2971,4.59976,2470.063,2020-6-26T14:59:18Z
2020-06-26T13:01:36Z,42.805,6.029,13.2974,4.59982,2470.087,2020-6-26T15:02:21Z
2020-06-26T13:04:39Z,42.805,6.029,13.2973,4.59979,2470.077,2020-6-26T15:05:24Z
2020-06-26T13:07:42Z,42.805,6.029,13.2973,4.59983,2470.087,2020-6-26T15:08:28Z
2020-06-26T13:10:46Z,42.805,6.029,13.2971,4.59981,2470.11,2020-6-26T15:11:31Z
2020-06-26T13:13:49Z,42.805,6.029,13.2974,4.59979,2470.063,2020-6-26T15:14:34Z
2020-06-26T13:16:52Z,42.805,6.029,13.2971,4.59986,2470.1,2020-6-26T15:17:37Z
2020-06-26T13:19:55Z,42.805,6.029,13.2976,4.59983,2470.1,2020-6-26T15:20:41Z
2020-06-26T13:22:59Z,42.805,6.029,13.2972,4.59976,2470.063,2020-6-26T15:23:44Z
2020-06-26T13:26:02Z,42.805,6.029,13.2972,4.59979,2470.1,2020-6-26T15:26:47Z
2020-06-26T13:29:05Z,42.805,6.029,13.2968,4.59973,2470.063,2020-6-26T15:29:51Z
2020-06-26T13:32:08Z,42.805,6.029,13.2971,4.59983,2470.053,2020-6-26T15:32:54Z
2020-06-26T13:35:12Z,42.805,6.029,13.2973,4.59983,2470.063,2020-6-26T15:35:57Z
2020-06-26T13:38:15Z,42.805,6.029,13.2973,4.59983,2470.04,2020-6-26T15:39:00Z
2020-06-26T13:41:18Z,42.805,6.029,13.2971,4.59980,2470.063,2020-6-26T15:42:04Z
2020-06-26T13:44:22Z,42.805,6.029,13.2972,4.59985,2470.04,2020-6-26T15:45:07Z
2020-06-26T13:47:25Z,42.805,6.029,13.2972,4.59977,2470.04,2020-6-26T15:48:10Z
2020-06-26T13:50:28Z,42.805,6.029,13.2969,4.59986,2470.063,2020-6-26T15:51:13Z
2020-06-26T13:53:31Z,42.805,6.029,13.2978,4.59986,2470.04,2020-6-26T15:54:17Z
2020-06-26T13:56:35Z,42.805,6.029,13.2978,4.59986,2470.04,2020-6-26T15:57:20Z
2020-06-26T13:59:38Z,42.805,6.029,13.2971,4.59978,2470.077,2020-6-26T16:00:23Z
2020-06-26T14:02:41Z,42.805,6.029,13.2969,4.59976,2470.1,2020-6-26T16:03:26Z
2020-06-26T14:05:44Z,42.805,6.029,13.2974,4.59980,2470.04,2020-6-26T16:06:30Z
2020-06-26T14:08:48Z,42.805,6.029,13.2971,4.59979,2470.077,2020-6-26T16:09:33Z
2020-06-26T14:11:51Z,42.805,6.029,13.2968,4.59976,2470.077,2020-6-26T16:12:36Z
2020-06-26T14:14:54Z,42.805,6.029,13.2971,4.59979,2470.053,2020-6-26T16:15:39Z
2020-06-26T14:17:57Z,42.805,6.029,13.2972,4.59976,2470.053,2020-6-26T16:18:43Z
2020-06-26T14:21:01Z,42.805,6.029,13.2968,4.59976,2470.04,2020-6-26T16:21:46Z
2020-06-26T14:24:04Z,42.805,6.029,13.2976,4.59979,2470.063,2020-6-26T16:24:49Z
2020-06-26T14:27:07Z,42.805,6.029,13.2967,4.59978,2470.04,2020-6-26T16:27:52Z
2020-06-26T14:30:10Z,42.805,6.029,13.2973,4.59981,2470.04,2020-6-26T16:30:55Z
2020-06-26T14:33:13Z,42.805,6.029,13.2974,4.59983,2470.017,2020-6-26T16:33:59Z
2020-06-26T14:36:17Z,42.805,6.029,13.2973,4.59976,2470.04,2020-6-26T16:37:02Z
2020-06-26T14:39:20Z,42.805,6.029,13.2975,4.59981,2469.993,2020-6-26T16:40:05Z
2020-06-26T14:42:23Z,42.805,6.029,13.2974,4.59978,2470.017,2020-6-26T16:43:08Z
2020-06-26T14:45:27Z,42.805,6.029,13.2969,4.59979,2470.03,2020-6-26T16:46:12Z
2020-06-26T14:48:30Z,42.805,6.029,13.2971,4.59978,2470.007,2020-6-26T16:49:15Z
2020-06-26T14:51:33Z,42.805,6.029,13.2971,4.59976,2470.04,2020-6-26T16:52:18Z
2020-06-26T14:54:36Z,42.805,6.029,13.2971,4.59980,2470.017,2020-6-26T16:55:21Z
2020-06-26T14:57:39Z,42.805,6.029,13.2968,4.59976,2469.993,2020-6-26T16:58:25Z
2020-06-26T15:00:43Z,42.805,6.029,13.2967,4.59978,2470.04,2020-6-26T17:01:28Z
2020-06-26T15:03:46Z,42.805,6.029,13.2973,4.59979,2470.04,2020-6-26T17:04:31Z
2020-06-26T15:06:49Z,42.805,6.029,13.2971,4.59975,2470.017,2020-6-26T17:07:34Z
2020-06-26T15:09:52Z,42.805,6.029,13.2969,4.59974,2470.017,2020-6-26T17:10:38Z
2020-06-26T15:12:56Z,42.805,6.029,13.2970,4.59980,2469.993,2020-6-26T17:13:41Z
2020-06-26T15:15:59Z,42.805,6.029,13.2972,4.59978,2470.03,2020-6-26T17:16:44Z